Location: Brabourne
(51.1333°N, 1.0000°E)
Time: 01:02:13
(UTC+00:00)

EP 2 - Visible Passes

Search period start: 24 October 2021 00:00
Search period end: 03 November 2021 00:00
Orbit: 377 x 1615 km, 63.3° (Epoch: 14 October)

Date Brightness Start Highest point End Pass type
(mag) Time Alt. Az. Time Alt. Az. Time Alt. Az.
24 Oct 6.5 18:06:20 10° W 18:08:56 26° NNW 18:11:37 11° NNE visible
25 Oct 7.1 18:26:21 10° WNW 18:28:31 18° NNW 18:30:24 12° NNE visible
26 Oct 7.4 18:46:31 10° NW 18:48:12 14° NNW 18:49:09 12° N visible
27 Oct 6.3 17:16:54 10° W 17:19:32 28° NNW 17:22:22 10° NNE visible
27 Oct 7.6 19:06:36 10° NNW 19:07:52 12° N 19:07:52 12° N visible
28 Oct 6.9 17:36:50 10° WNW 17:39:04 18° NNW 17:41:28 10° NNE visible
28 Oct 7.9 19:26:19 10° NNW 19:26:34 11° NNW 19:26:34 11° NNW visible
29 Oct 7.3 17:56:57 10° NW 17:58:42 14° NNW 18:00:35 10° NNE visible
30 Oct 7.5 18:17:02 10° NNW 18:18:25 12° N 18:19:43 10° NNE visible
31 Oct 7.5 18:36:47 10° NNW 18:38:09 12° N 18:38:22 12° N visible
01 Nov 7.2 17:07:17 10° NW 17:09:06 14° NNW 17:11:03 10° NNE visible
01 Nov 7.6 18:56:03 10° NNW 18:57:00 12° N 18:57:00 12° N visible
02 Nov 7.4 17:27:21 10° NNW 17:28:46 12° N 17:30:16 10° NNE visible
02 Nov 7.8 19:15:06 10° NNW 19:15:39 12° NNW 19:15:39 12° NNW visible
